Hourly Data Report for October 03, 2017

All times are specified in Local Standard Time (LST). Add 1 hour to adjust for Daylight Saving Time where and when it is observed.

SPRAGUE
MANITOBA

49°01'25.000" N
95°35'54.009" W
328.80 m
5022759
71449
WSU

Download Data

Hourly Data (October 2017)
Hourly Data Report for October 3, 2017
Temp Definition
°C
Dew Point Temp Definition
°C
Rel Hum Definition
%
Wind Dir Definition
10's deg

Wind Spd Definition
km/h
Visibility Definition
km
Stn Press Definition
kPa
Hmdx Definition


Wind Chill Definition


Weather Definition


TIME
00:00 4.8 3.7 93 29 6   97.42     LegendNANA
01:00 6.1 5.5 96 13 4   97.44     LegendNANA
02:00 6.3 5.7 96 15 4   97.43     LegendNANA
03:00 6.5 5.9 96 15 2   97.49     LegendNANA
04:00 7.0 6.4 96 0 1   97.50     LegendNANA
05:00 7.4 6.8 96 16 2   97.55     LegendNANA
06:00 7.1 6.5 96 29 2   97.52     LegendNANA
07:00 7.3 6.7 96 3 1   97.50     LegendNANA
08:00 7.9 7.3 96 19 2   97.69     LegendNANA
09:00 8.5 7.8 96 24 6   97.81     LegendNANA
10:00 9.3 8.0 91 30 7   97.82     LegendNANA
11:00 10.2 8.5 89 31 4   97.88     LegendNANA
12:00 10.4 8.6 89 24 7   97.94     LegendNANA
13:00 10.7 6.3 74 28 19   97.98     LegendNANA
14:00 12.1 5.9 66 21 4   97.96     LegendNANA
15:00 13.6 5.3 57 19 7   97.99     LegendNANA
16:00 13.8 4.2 52 23 9   98.03     LegendNANA
17:00 13.6 4.2 53 25 6   98.05     LegendNANA
18:00 10.2 4.5 68 24 5   98.07     LegendNANA
19:00 7.9 5.9 87 14 3   98.12     LegendNANA
20:00 8.7 6.5 87 13 6   98.13     LegendNANA
21:00 7.8 5.7 86 16 6   98.14     LegendNANA
22:00 8.1 5.8 86 19 3   98.12     LegendNANA
23:00 8.0 5.7 85 18 4   98.09     LegendNANA

Notes on Data Quality.

Legend

  • E = Estimated
  • M = Missing
  • NA = Not Available
  • ‡ = Partner data that is not subject to review by the National Climate Archives
Date modified: